STARLINK-1297, 45395

Orbit data source: Space-Track

STARLINK-1297, 45395 is a payload satellite owned by SpaceX/Seattle (US) in LEO that was launched on Wed, 18 Mar 2020 UTC via an FALCON 9 launch vehicle from the Air Force Eastern Test Range (AFETR). Payload-class satellites include a variety of spacecraft equipped with specific instruments for various scientific and technological missions. These include communications satellites like Starlink; space stations such as the ISS; scientific satellites like the Hubble; Earth observation satellites from companies like Planet Labs, Umbra, and HawkEye 360; GPS; miniature CubeSats for education and research; and military/defense satellites.

Loading next visibility...
Identifier
45395, 2020-019AM
Orbit
LEO
Country
Flag of USUS
Related business
Manufacturer
SpaceX/Seattle
Mission
Partially operational Commercial Communications
Bus & Motor
STARLINK, Unknown motor
Mass
260 kg wet, ~248 kg dry
Launch date (UTC)
2020-03-18 (6 years ago)
Launch vehicle
FALCON 9
Launch site
Air Force Eastern Test Range (AFETR)
Object type
Payload
Rocket body
Debris
Shape & HBR
Box + 1 Pan, 10.1 m
Radar Cross Section
13.562 m², Large (>1 m²)

Expand to show TLE details & history
Last TLE update: 9 hours ago

TLE from 9 hours ago
0 STARLINK-1297
1 45395U 20019AM  26170.16389969  .00051761  00000-0  43272-3 0  9996
2 45395  53.0417 354.1038 0004861  84.4762 275.6809 15.69511092345280
Epoch: 2026-06-19T03:56Z
TLE epoch observation values (Epoch: 2026-06-19T03:56:00.933Z)
Latitude
0.00003°
Longitude
27.70312°
Altitude
360.875 km
Speed
7.694 km/s
True Right ascension
23h 36m 24s
True Declination
0° 00' 00"
Sunlit
Object was in daylight at epoch
Visualization orbit readout
Latitude
Unknown
Longitude
Unknown
Altitude
Unknown
Speed
Unknown
Apparent Right ascension
Unknown
Apparent Declination
Unknown
Sunlit
N/A
Visualization observer readout
Local Sidereal Time
00:09:21
Azimuth
Unknown
Elevation
Unknown
Doppler factor
Unknown
Orbital elements
Apogee altitude
363.852 km
Perigee altitude
357.3 km
Semi-major axis
6,738.713 km
Eccentricity
0.00049
Inclination
53.0417°
RAAN
354.1038°
Arg. of periapsis
84.4762°
True anomaly
275.62547°
Mean anomaly
275.6809°
Eccentric anomaly
275.65318°
Mean motion
3.92354 °/min
Orbital period
91.75 mins
BSTAR
0.00043272
Loading maneuver chart data...
Computing Atmospheric mass density...

Documentation

Showing up to 5 results
|